Date String (YYYY-MM-DD hh:mm:ss) UTC,Instrument flags,Ambient pressure (hPa),Sample flow (lpm),Bypass flow (lpm),Sample temperature (°C),Ambient temperature (°C),ASC tube jacket temperature (°C),LED temperature (°C),Box temperature (°C),Sample RH (%),Span deviation,Mass concentration (μg/m³),Mass concentration (μg/m³),Mass concentration (μg/m³)
DateTimeUTC,F1_M11,P_M11,Q1_M11,Q2_M11,T1_M11,T2_M11,T3_M11,T4_M11,T5_M11,U1_M11,ZSPAN_M11,X0_M11,X2_M11,X1_M11
2022-07-21 02:00:00,,0828.0,5.01,0.00,30.7,27.4,00.0,39.0,31.8,33.7,0000.0,0015.40,0007.36,0005.49
2022-07-21 02:01:00,,0827.9,5.00,0.00,30.6,27.2,00.0,38.9,31.7,33.7,0000.0,0015.37,0007.41,0005.51
2022-07-21 02:02:00,,0828.0,4.99,0.00,30.5,27.1,00.0,38.9,31.6,33.8,0000.0,0014.84,0007.41,0005.51
2022-07-21 02:03:00,,0828.0,5.01,0.00,30.4,27.2,00.0,38.9,31.5,33.8,0000.0,0015.25,0007.39,0005.49
2022-07-21 02:04:00,,0827.9,5.00,0.00,30.3,27.4,00.0,38.9,31.5,33.9,0000.0,0015.15,0007.40,0005.48
2022-07-21 02:05:00,,0827.9,4.99,0.00,30.3,27.6,00.0,38.9,31.6,33.7,0000.0,0015.39,0007.38,0005.47
2022-07-21 02:06:00,,0827.9,5.01,0.00,30.3,27.7,00.0,38.9,31.6,33.3,0000.0,0015.48,0007.33,0005.46
2022-07-21 02:07:00,,0828.0,5.00,0.00,30.2,27.9,00.0,38.9,31.6,33.1,0000.0,0015.46,0007.20,0005.43
2022-07-21 02:08:00,,0828.0,5.00,0.00,30.2,28.1,00.0,38.9,31.7,32.6,0000.0,0015.12,0007.08,0005.41
2022-07-21 02:09:00,,0828.0,5.00,0.00,30.2,28.2,00.0,38.9,31.7,32.7,0000.0,0014.98,0007.02,0005.41
2022-07-21 02:10:00,,0828.0,4.99,0.00,30.2,28.3,00.0,38.9,31.7,32.7,0000.0,0014.76,0006.96,0005.39
2022-07-21 02:11:00,,0828.0,5.01,0.00,30.2,28.5,00.0,38.9,31.8,32.6,0000.0,0013.88,0006.86,0005.37
2022-07-21 02:12:00,,0828.1,5.00,0.00,30.3,28.3,00.0,38.8,31.8,32.7,0000.0,0014.11,0006.80,0005.33
2022-07-21 02:13:00,,0828.1,5.00,0.00,30.2,27.6,00.0,38.8,31.7,32.6,0000.0,0014.23,0006.80,0005.32
2022-07-21 02:14:00,,0828.1,5.00,0.00,30.2,27.1,00.0,38.7,31.6,32.8,0000.0,0013.78,0006.78,0005.32
2022-07-21 02:15:00,,0828.2,4.99,0.00,30.1,27.0,00.0,38.7,31.4,33.0,0000.0,0013.95,0006.77,0005.32
2022-07-21 02:16:00,,0828.3,5.00,0.00,30.0,27.1,00.0,38.7,31.4,33.5,0000.0,0013.72,0006.80,0005.32
2022-07-21 02:17:00,,0828.3,4.99,0.00,29.9,27.2,00.0,38.7,31.4,34.1,0000.0,0013.68,0006.85,0005.33
2022-07-21 02:18:00,,0828.3,4.99,0.00,29.9,27.4,00.0,38.6,31.4,34.7,0000.0,0014.38,0006.93,0005.33
2022-07-21 02:19:00,,0828.3,5.00,0.00,29.9,27.6,00.0,38.6,31.4,34.9,0000.0,0014.67,0006.98,0005.32
2022-07-21 02:20:00,,0828.3,4.99,0.00,29.9,27.8,00.0,38.6,31.5,34.9,0000.0,0014.62,0006.96,0005.31
2022-07-21 02:21:00,,0828.2,5.01,0.00,29.9,27.9,00.0,38.6,31.6,34.6,0000.0,0015.25,0006.96,0005.28
2022-07-21 02:22:00,,0828.2,4.98,0.00,30.1,28.1,00.0,38.6,31.7,33.7,0000.0,0015.43,0006.94,0005.24
2022-07-21 02:23:00,,0828.2,5.00,0.00,30.1,28.2,00.0,38.6,31.7,34.2,0000.0,0015.01,0006.84,0005.23
2022-07-21 02:24:00,,0828.1,5.01,0.00,30.2,28.3,00.0,38.7,31.7,32.8,0000.0,0015.50,0006.80,0005.19
2022-07-21 02:25:00,,0828.1,5.01,0.00,30.2,28.5,00.0,38.7,31.7,32.5,0000.0,0015.83,0006.77,0005.15
2022-07-21 02:26:00,,0828.0,5.00,0.00,30.3,28.2,00.0,38.6,31.8,33.2,0000.0,0015.71,0006.76,0005.12
2022-07-21 02:27:00,,0827.9,4.99,0.00,30.2,27.4,00.0,38.6,31.7,33.8,0000.0,0015.66,0006.74,0005.11
2022-07-21 02:28:00,,0828.0,5.01,0.00,30.2,27.0,00.0,38.6,31.5,34.4,0000.0,0016.35,0006.69,0005.07
2022-07-21 02:29:00,,0828.0,4.99,0.00,30.1,27.0,00.0,38.6,31.4,34.8,0000.0,0015.53,0006.59,0005.06
2022-07-21 02:30:00,,0827.9,4.99,0.00,30.1,27.1,00.0,38.6,31.4,35.3,0000.0,0015.94,0006.53,0005.05
2022-07-21 02:31:00,,0827.9,5.01,0.00,30.2,27.3,00.0,38.6,31.5,34.3,0000.0,0016.21,0006.51,0005.03
2022-07-21 02:32:00,,0828.0,5.00,0.00,30.4,27.4,00.0,38.6,31.6,32.3,0000.0,0015.79,0006.44,0005.01
2022-07-21 02:33:00,,0827.9,5.00,0.00,30.5,27.6,00.0,38.6,31.7,32.8,0000.0,0015.63,0006.44,0005.00
2022-07-21 02:34:00,,0827.9,5.01,0.00,30.5,27.8,00.0,38.6,31.7,28.6,0000.0,0015.74,0006.46,0004.96
2022-07-21 02:35:00,,0828.0,4.99,0.00,30.5,28.0,00.0,38.7,31.7,29.7,0000.0,0015.16,0006.42,0004.91
2022-07-21 02:36:00,,0827.9,5.01,0.00,30.5,28.1,00.0,38.7,31.7,29.5,0000.0,0014.57,0006.34,0004.89
2022-07-21 02:37:00,,0827.9,4.99,0.00,30.6,28.3,00.0,38.8,31.8,30.6,0000.0,0014.43,0006.26,0004.86
2022-07-21 02:38:00,,0827.9,5.01,0.00,30.6,28.4,00.0,38.8,31.8,28.6,0000.0,0014.24,0006.14,0004.79
2022-07-21 02:39:00,,0827.9,5.00,0.00,30.6,28.5,00.0,38.8,31.9,28.6,0000.0,0013.58,0006.08,0004.73
2022-07-21 02:40:00,,0827.9,5.00,0.00,30.6,28.1,00.0,38.8,31.8,29.9,0000.0,0013.84,0006.07,0004.68
2022-07-21 02:41:00,,0827.8,5.00,0.00,30.6,27.4,00.0,38.8,31.7,29.7,0000.0,0013.44,0006.03,0004.63
2022-07-21 02:42:00,,0827.9,5.01,0.00,30.5,27.1,00.0,38.7,31.6,31.3,0000.0,0012.97,0005.98,0004.60
2022-07-21 02:43:00,,0827.9,5.00,0.00,30.4,27.0,00.0,38.8,31.5,32.5,0000.0,0013.50,0006.00,0004.59
2022-07-21 02:44:00,,0827.9,5.00,0.00,30.3,27.1,00.0,38.8,31.4,30.7,0000.0,0013.46,0005.99,0004.58
2022-07-21 02:45:00,,0828.0,5.00,0.00,30.2,27.3,00.0,38.8,31.4,29.2,0000.0,0013.35,0005.99,0004.55
2022-07-21 02:46:00,,0827.9,5.00,0.00,30.2,27.5,00.0,38.8,31.5,28.6,0000.0,0013.12,0005.95,0004.54
2022-07-21 02:47:00,,0827.9,5.00,0.00,30.2,27.7,00.0,38.7,31.5,28.6,0000.0,0012.82,0005.91,0004.51
2022-07-21 02:48:00,,0827.9,5.00,0.00,30.1,27.8,00.0,38.7,31.5,28.7,0000.0,0012.74,0005.89,0004.49
2022-07-21 02:49:00,,0827.9,5.00,0.00,30.1,28.0,00.0,38.7,31.6,29.2,0000.0,0013.49,0005.89,0004.48
2022-07-21 02:50:00,,0828.0,5.00,0.00,30.1,28.2,00.0,38.7,31.7,29.5,0000.0,0013.53,0005.89,0004.49
2022-07-21 02:51:00,,0828.0,4.99,0.00,30.1,28.3,00.0,38.7,31.7,29.8,0000.0,0013.47,0005.90,0004.49
2022-07-21 02:52:00,,0828.1,5.00,0.00,30.2,28.4,00.0,38.8,31.7,29.8,0000.0,0012.27,0005.79,0004.48
2022-07-21 02:53:00,,0828.3,5.00,0.00,30.2,28.5,00.0,38.8,31.7,27.2,0000.0,0012.22,0005.76,0004.46
2022-07-21 02:54:00,,0828.5,5.01,0.00,30.2,28.4,00.0,38.7,31.8,27.7,0000.0,0012.39,0005.76,0004.43
2022-07-21 02:55:00,,0828.4,5.00,0.00,30.2,27.7,00.0,38.7,31.7,27.9,0000.0,0011.94,0005.71,0004.41
2022-07-21 02:56:00,,0828.4,5.01,0.00,30.1,27.2,00.0,38.6,31.6,25.7,0000.0,0012.32,0005.68,0004.39
2022-07-21 02:57:00,,0828.4,5.00,0.00,30.0,27.1,00.0,38.6,31.5,24.7,0000.0,0012.57,0005.67,0004.38
2022-07-21 02:58:00,,0828.3,5.01,0.00,29.9,27.1,00.0,38.6,31.4,24.6,0000.0,0012.66,0005.71,0004.36
2022-07-21 02:59:00,,0828.3,5.00,0.00,29.9,27.2,00.0,38.6,31.4,24.4,0000.0,0012.71,0005.72,0004.34
